カタログに戻る

FENGYUN 1C DEB

運用中SSO
NORAD 30432·DEBRIS·🇨🇳 China

打ち上げ May 10, 1999 から Taiyuan Satellite Launch Center

Loading…

次のパス (今後24時間)

TLE

最新Source: Space-Track

元期: Sep 14, 2026, 04:26 UTC

1 30432U 99025AET 26257.18478288  .00000899  00000-0  28065-3 0  9995
2 30432  98.8184 170.0842 0080265 239.5297 119.7946 14.41598159 27027

AllMySatでFENGYUN 1C DEBをリアルタイム追跡

Download on the App Store